EW0844 Weather Reports


Display with metric or nautical units.
time (UTC)temp
F
wind
direction
speed
MPH
gust
MPH
rain 1hr
in
rain 24hr
in
rain mn
in
humidity
%
barometer
mb
20260906043413 55 268 0.0 1.0 0.00 0.24 0.00 91 1026.4
20260906041913 55 45 0.0 2.0 0.00 0.24 0.00 91 1026.3
20260906040413 56 88 1.0 2.0 0.00 0.24 0.00 91 1026.4
20260906034913 56 116 1.0 2.0 0.00 0.24 0.00 90 1026.1
20260906033413 56 116 1.0 1.0 0.00 0.24 0.00 90 1026.0
20260906031913 56 222 1.0 2.0 0.00 0.24 0.00 90 1026.0
20260906024914 56 359 1.0 2.0 0.00 0.24 0.00 89 1025.9
20260906023413 57 313 1.0 2.0 0.00 0.24 0.00 88 1025.9
20260906021914 57 19 0.0 1.0 0.00 0.24 0.00 88 1025.8
20260906020413 58 339 1.0 2.0 0.00 0.24 0.00 87 1025.8
20260906014910 58 359 1.0 2.0 0.00 0.24 0.00 87 1026.0
20260906013410 58 240 1.0 2.0 0.00 0.24 0.00 87 1025.8
20260906011912 58 313 0.0 1.0 0.00 0.24 0.00 87 1025.8
20260906004915 59 45 0.0 2.0 0.00 0.24 0.00 85 1025.7
20260906001915 60 300 2.0 3.0 0.00 0.24 0.00 85 1025.6
20260906000414 60 359 0.0 3.0 0.00 0.24 0.00 85 1025.4
20260905234913 60 222 1.0 4.0 0.00 0.24 0.00 85 1025.4
20260905233413 60 177 1.0 4.0 0.00 0.24 0.00 85 1025.4
20260905224913 60 89 1.0 3.0 0.00 0.24 0.00 87 1025.3
20260905223412 60 313 1.0 4.0 0.00 0.24 0.00 86 1025.2
20260905221911 60 230 0.0 2.0 0.00 0.24 0.00 85 1025.2
20260905214912 61 228 3.0 5.0 0.00 0.24 0.24 85 1024.8
20260905213411 62 251 2.0 4.0 0.00 0.24 0.24 84 1024.7
20260905204912 64 227 3.0 5.0 0.00 0.24 0.24 81 1024.2
20260905203413 64 268 3.0 6.0 0.00 0.24 0.24 79 1024.2
20260905201912 65 233 3.0 6.0 0.00 0.24 0.24 78 1024.0
20260905200413 65 201 4.0 15.0 0.00 0.24 0.24 78 1023.9
20260905194913 65 272 6.0 11.0 0.00 0.24 0.24 79 1023.6
20260905191912 64 244 1.0 5.0 0.00 0.24 0.24 82 1022.9
20260905190412 64 220 4.0 6.0 0.00 0.24 0.24 82 1023.0
20260905184912 64 196 2.0 5.0 0.00 0.24 0.24 82 1022.9
20260905183412 64 214 3.0 7.0 0.00 0.24 0.24 81 1022.7
20260905181913 65 229 4.0 7.0 0.00 0.24 0.24 81 1022.6
20260905180412 65 359 1.0 4.0 0.00 0.24 0.24 80 1022.5
20260905174914 65 211 4.0 7.0 0.00 0.24 0.24 78 1022.3
20260905173413 66 194 2.0 4.0 0.00 0.24 0.24 77 1022.1
20260905171913 67 226 4.0 8.0 0.00 0.24 0.24 76 1021.9
20260905164913 67 208 2.0 11.0 0.00 0.24 0.24 73 1022.0
20260905161914 67 161 3.0 10.0 0.00 0.24 0.24 69 1021.9
20260905160414 67 228 4.0 10.0 0.00 0.24 0.24 68 1021.7
20260905154914 67 263 4.0 11.0 0.00 0.24 0.24 68 1021.4
20260905153414 67 217 5.0 11.0 0.00 0.24 0.24 68 1021.5
20260905151914 67 228 6.0 11.0 0.00 0.24 0.24 67 1021.5
20260905150414 68 159 10.0 17.0 0.00 0.24 0.24 67 1021.5
20260905143413 68 233 3.0 11.0 0.00 0.24 0.24 69 1021.7
20260905141913 68 223 6.0 15.0 0.00 0.24 0.24 71 1021.8
20260905140412 66 302 4.0 10.0 0.00 0.24 0.24 75 1021.7
20260905134912 65 206 3.0 12.0 0.00 0.24 0.24 78 1022.0
20260905133412 64 226 4.0 9.0 0.00 0.24 0.24 81 1021.9
20260905130412 64 228 4.0 13.0 0.00 0.24 0.24 83 1021.7
20260905124913 64 238 3.0 7.0 0.00 0.24 0.24 82 1021.8
20260905123412 64 225 4.0 9.0 0.00 0.24 0.24 83 1021.8
20260905121913 64 261 4.0 7.0 0.00 0.24 0.24 84 1021.7
20260905120412 63 209 4.0 6.0 0.00 0.24 0.24 86 1021.4
20260905114912 62 182 3.0 9.0 0.00 0.24 0.24 86 1021.5
20260905111913 61 19 1.0 6.0 0.01 0.24 0.24 89 1021.4
20260905110413 61 167 2.0 6.0 0.01 0.24 0.24 87 1021.5
20260905104913 62 103 2.0 5.0 0.01 0.24 0.24 87 1021.4
20260905103413 62 229 2.0 3.0 0.01 0.23 0.23 87 1021.5
20260905101912 62 249 2.0 5.0 0.01 0.23 0.23 88 1021.7
20260905093412 62 194 2.0 6.0 0.00 0.22 0.22 85 1021.1
20260905091912 62 145 3.0 7.0 0.00 0.22 0.22 85 1021.0
20260905090414 61 154 2.0 5.0 0.00 0.22 0.22 86 1021.1
20260905083414 59 155 3.0 5.0 0.00 0.22 0.22 86 1021.0
20260905081914 59 177 1.0 3.0 0.00 0.22 0.22 87 1021.1
20260905080412 59 192 1.0 3.0 0.00 0.22 0.22 88 1020.9
20260905074913 58 279 2.0 3.0 0.01 0.22 0.22 90 1020.8
20260905073411 58 359 2.0 5.0 0.06 0.22 0.22 91 1021.0
20260905071912 56 359 2.0 5.0 0.06 0.22 0.22 91 1020.5
20260905070412 56 359 3.0 5.0 0.08 0.22 0.22 90 1020.5
20260905064912 57 138 2.0 3.0 0.08 0.21 0.21 89 1020.2
20260905061914 56 313 1.0 3.0 0.16 0.16 0.16 87 1020.6
20260905060413 57 273 5.0 8.0 0.14 0.14 0.14 86 1021.1
20260905054912 57 313 3.0 7.0 0.13 0.13 0.13 82 1020.8
20260905053412 61 359 3.0 17.0 0.07 0.07 0.07 72 1021.0
20260905051912 64 45 3.0 10.0 0.00 0.00 0.00 61 1019.4
20260905050412 64 305 6.0 13.0 0.00 0.00 0.00 60 1018.9
20260905044912 65 289 7.0 9.0 0.00 0.00 0.00 61 1018.4